Le nostre stazioni meteo in Italia

Pubblicità
Il mio iltempo24.it
Rimini, Italia (16149): Temperatura & dewpoint: 15.09.2018 05:00:00 - 21.09.2018 05:00:00 (CEST)Rimini, Italia (16149): velocità del vento: 15.09.2018 05:00:00 - 21.09.2018 05:00:00 (CEST)Rimini, Italia (16149): direzione del vento: 15.09.2018 05:00:00 - 21.09.2018 05:00:00 (CEST)Rimini, Italia (16149): reduced air pressure: 15.09.2018 05:00:00 - 21.09.2018 05:00:00 (CEST)Rimini, Italia (16149): visibility: 15.09.2018 05:00:00 - 21.09.2018 05:00:00 (CEST)Rimini, Italia (16149): precipitazioni: 15.09.2018 05:00:00 - 21.09.2018 05:00:00 (CEST)
Data & Tempo tt [°C] td [°C] ff [km/h] ff [kn] dd ppp [hPa] vv [km] rr [mm]
21.09.2018 05:00:00 - - - - - - - -
21.09.2018 04:00:00 - - - - - - - -
21.09.2018 03:00:00 - - - - - - - -
21.09.2018 02:00:00 17,7 15,4 5 3 SSO 1016,7 - -
21.09.2018 01:00:00 - - - - - - - -
21.09.2018 00:00:00 - - - - - - - -
20.09.2018 23:00:00 19,6 17,8 4 2 S 1017,3 10 0,0
20.09.2018 22:00:00 20,0 18,0 5 3 S - 10 -
20.09.2018 21:00:00 21,0 20,0 4 2 S - 8 -
20.09.2018 20:00:00 21,9 20,2 2 1 ESE 1017,1 10 -
20.09.2018 19:00:00 24,0 20,0 5 3 E - 10 -
20.09.2018 18:00:00 25,0 20,0 8 4 NE - 10 -
20.09.2018 17:00:00 25,8 20,1 11 6 NNE 1017,5 10 0,0
20.09.2018 16:00:00 26,0 20,0 13 7 NNE - 10 -
20.09.2018 15:00:00 26,0 20,0 15 8 N - 10 -
20.09.2018 14:00:00 26,1 19,2 16 9 N 1018,7 10 -
20.09.2018 13:00:00 26,0 19,0 16 9 NNO - 10 -
20.09.2018 12:00:00 26,0 20,0 13 7 NNO - 10 -
20.09.2018 11:00:00 24,3 19,9 13 7 O 1019,7 10 0,0
20.09.2018 10:00:00 23,0 19,0 13 7 O - 10 -
20.09.2018 09:00:00 21,0 18,0 9 5 O - 10 -
20.09.2018 08:00:00 18,7 17,1 8 4 OSO 1019,2 9 -
20.09.2018 07:00:00 18,0 17,0 8 4 SSO - 10 -
20.09.2018 06:00:00 18,0 17,0 8 4 SSO - 9 -
20.09.2018 05:00:00 18,3 16,9 8 4 SSO 1018,7 9 0,0
20.09.2018 04:00:00 18,0 17,0 4 2 SSO - 7 -
20.09.2018 03:00:00 19,0 18,0 4 2 - - 6 -
20.09.2018 02:00:00 19,1 18,2 2 1 - 1019,4 8 -
20.09.2018 01:00:00 20,0 18,0 8 4 S - 6 -
20.09.2018 00:00:00 20,0 19,0 5 3 SSO - 8 -
19.09.2018 23:00:00 20,4 19,0 4 2 - 1019,7 10 0,0
19.09.2018 22:00:00 21,0 19,0 4 2 - - 10 -
19.09.2018 21:00:00 21,0 19,0 4 2 SSE - 10 -
19.09.2018 20:00:00 23,1 19,9 4 2 SE 1019,2 10 -
19.09.2018 19:00:00 24,0 20,0 8 4 E - 10 -
19.09.2018 18:00:00 25,0 21,0 8 4 ENE - 10 -
19.09.2018 17:00:00 24,9 21,0 11 6 NNE 1018,8 10 0,0
19.09.2018 16:00:00 25,0 21,0 13 7 NNE - 10 -
19.09.2018 15:00:00 25,0 21,0 15 8 N - 8 -
19.09.2018 14:00:00 25,4 21,6 13 7 N 1019,9 8 -
19.09.2018 13:00:00 25,0 21,0 11 6 N - 8 -
19.09.2018 12:00:00 25,0 21,0 11 6 N - 8 -
19.09.2018 11:00:00 24,7 19,9 9 5 ONO 1020,1 8 0,0
19.09.2018 10:00:00 24,0 19,0 11 6 O - 10 -
19.09.2018 09:00:00 - - - - - - - -
19.09.2018 08:00:00 20,3 18,4 5 3 SSO 1019,6 8 -
19.09.2018 07:00:00 20,0 18,0 4 2 SSO - 10 -
19.09.2018 06:00:00 20,0 18,0 4 2 SO - 10 -
19.09.2018 05:00:00 19,4 17,9 5 3 SSO 1019,0 10 0,0
19.09.2018 04:00:00 19,0 18,0 4 2 - - 10 -
19.09.2018 03:00:00 19,0 18,0 4 2 - - 10 -
19.09.2018 02:00:00 19,6 18,5 2 1 - 1019,0 8 -
19.09.2018 01:00:00 20,0 19,0 5 3 S - 8 -
19.09.2018 00:00:00 20,0 19,0 4 2 - - 8 -
18.09.2018 23:00:00 20,9 19,6 8 4 S 1019,0 10 0,0
18.09.2018 22:00:00 21,0 20,0 4 2 S - 10 -
18.09.2018 21:00:00 22,0 21,0 5 3 SE - 9 -
18.09.2018 20:00:00 23,5 20,8 5 3 E 1018,4 9 -
18.09.2018 19:00:00 24,0 20,0 5 3 E - 8 -
18.09.2018 18:00:00 24,0 21,0 5 3 ENE - 8 -
18.09.2018 17:00:00 24,2 20,9 8 4 NE 1018,7 10 0,0
18.09.2018 16:00:00 25,0 19,0 11 6 NE - 10 -
18.09.2018 15:00:00 25,0 20,0 11 6 ENE - 8 -
18.09.2018 14:00:00 24,8 20,0 11 6 NE 1019,6 8 -
18.09.2018 13:00:00 24,0 21,0 13 7 NNE - 7 -
18.09.2018 12:00:00 24,0 21,0 13 7 N - 8 -
18.09.2018 11:00:00 23,9 20,5 9 5 N 1020,2 10 0,0
18.09.2018 10:00:00 23,0 18,0 4 2 - - 10 -
18.09.2018 09:00:00 21,0 18,0 2 1 - - 10 -
18.09.2018 08:00:00 18,3 17,0 2 1 S 1019,9 10 -
18.09.2018 07:00:00 18,0 17,0 2 1 - - 10 -
18.09.2018 06:00:00 19,0 17,0 4 2 S - 10 -
18.09.2018 05:00:00 19,1 17,5 4 2 S 1019,3 10 0,0
18.09.2018 04:00:00 19,0 18,0 4 2 - - 10 -
18.09.2018 03:00:00 20,0 18,0 2 1 - - 10 -
18.09.2018 02:00:00 19,9 18,1 5 3 SSO 1019,4 10 -
18.09.2018 01:00:00 20,0 19,0 2 1 S - 10 -
18.09.2018 00:00:00 20,0 18,0 8 4 S - 10 -
17.09.2018 23:00:00 19,4 18,6 2 1 SSE 1019,5 10 0,0
17.09.2018 22:00:00 22,0 19,0 4 2 - - 10 -
17.09.2018 21:00:00 21,0 19,0 8 4 SSE - 8 -
17.09.2018 20:00:00 22,0 18,8 4 2 S 1019,8 8 -
17.09.2018 19:00:00 24,0 22,0 4 2 - - 7 -
17.09.2018 18:00:00 24,0 22,0 4 2 - - 8 -
17.09.2018 17:00:00 24,3 21,7 5 3 E 1019,5 8 0,0
17.09.2018 16:00:00 24,0 22,0 9 5 ENE - 7 -
17.09.2018 15:00:00 24,0 21,0 11 6 NE - 8 -
17.09.2018 14:00:00 24,6 21,2 11 6 NNE 1020,6 8 -
17.09.2018 13:00:00 25,0 21,0 11 6 NE - 8 -
17.09.2018 12:00:00 25,0 21,0 9 5 NNE - 8 -
17.09.2018 11:00:00 24,5 20,5 9 5 NNE 1021,6 8 0,0
17.09.2018 10:00:00 24,0 20,0 5 3 ONO - 7 -
17.09.2018 09:00:00 21,0 19,0 4 2 SSE - 6 -
17.09.2018 08:00:00 19,6 18,3 4 2 SO 1021,2 6 -
17.09.2018 07:00:00 19,0 18,0 4 2 S - 9 -
17.09.2018 06:00:00 19,0 18,0 5 3 S - 9 -
17.09.2018 05:00:00 19,5 18,4 5 3 SSO 1020,7 9 0,0
17.09.2018 04:00:00 19,0 19,0 2 1 - - 8 -
17.09.2018 03:00:00 20,0 19,0 4 2 S - 7 -
17.09.2018 02:00:00 20,3 19,1 8 4 S 1020,9 9 -
17.09.2018 01:00:00 21,0 19,0 2 1 SSE - 10 -
17.09.2018 00:00:00 21,0 19,0 5 3 OSO - 10 -
16.09.2018 23:00:00 22,0 19,5 5 3 E 1021,1 10 0,0
16.09.2018 22:00:00 23,0 20,0 5 3 E - 10 -
16.09.2018 21:00:00 23,0 20,0 5 3 ESE - 10 -
16.09.2018 20:00:00 23,6 19,8 8 4 SE 1021,0 10 -
16.09.2018 19:00:00 24,0 20,0 9 5 E - 10 -
16.09.2018 18:00:00 24,0 20,0 13 7 E - 10 -
16.09.2018 17:00:00 25,4 20,4 11 6 ENE 1021,0 10 0,0
16.09.2018 16:00:00 26,0 21,0 13 7 ENE - 10 -
16.09.2018 15:00:00 26,0 21,0 13 7 NE - 10 -
16.09.2018 14:00:00 25,2 20,5 15 8 NE 1022,0 10 -
16.09.2018 13:00:00 25,0 21,0 13 7 NNE - 10 -
16.09.2018 12:00:00 25,0 20,0 9 5 NNE - 10 -
16.09.2018 11:00:00 24,3 20,5 8 4 N 1022,8 10 0,0
16.09.2018 10:00:00 24,0 21,0 2 1 - - 9 -
16.09.2018 09:00:00 22,0 20,0 2 1 - - 7 -
16.09.2018 08:00:00 20,2 19,2 4 2 O 1022,3 4,5 -
16.09.2018 07:00:00 19,0 18,0 2 1 OSO - 7 -
16.09.2018 06:00:00 19,0 18,0 4 2 S - 5 -
16.09.2018 05:00:00 19,2 18,4 4 2 SO 1021,5 6 0,0
16.09.2018 04:00:00 19,0 19,0 4 2 SSO - 5 -
16.09.2018 03:00:00 20,0 19,0 4 2 SSO - 7 -
16.09.2018 02:00:00 19,4 18,4 4 2 S 1021,7 6 -
16.09.2018 01:00:00 20,0 19,0 4 2 SSO - 8 -
16.09.2018 00:00:00 21,0 19,0 5 3 SSO - 8 -
15.09.2018 23:00:00 20,9 19,8 2 1 S 1021,2 8 0,0
15.09.2018 22:00:00 22,0 20,0 4 2 - - 8 -
15.09.2018 21:00:00 22,0 21,0 2 1 - - 8 -
15.09.2018 20:00:00 23,3 20,8 5 3 NE 1020,3 8 -
15.09.2018 19:00:00 24,0 20,0 5 3 NE - 10 -
15.09.2018 18:00:00 25,0 20,0 9 5 ENE - 10 -
15.09.2018 17:00:00 25,1 20,6 11 6 ENE 1019,6 10 0,0
15.09.2018 16:00:00 26,0 21,0 15 8 NE - 10 -
15.09.2018 15:00:00 26,0 20,0 15 8 NE - 10 -
15.09.2018 14:00:00 25,4 19,8 11 6 N 1019,7 10 -
15.09.2018 13:00:00 25,0 20,0 9 5 N - 10 -
15.09.2018 12:00:00 25,0 20,0 13 7 N - 10 -
15.09.2018 11:00:00 25,0 18,4 21 11 O 1020,1 10 0,0
15.09.2018 10:00:00 24,0 18,0 16 9 NO - 10 -
15.09.2018 09:00:00 23,0 18,0 4 2 - - 10 -
15.09.2018 08:00:00 19,4 16,6 5 3 S 1017,6 10 -
15.09.2018 07:00:00 18,0 17,0 8 4 S - 10 -
15.09.2018 06:00:00 18,0 17,0 2 1 - - 10 -
15.09.2018 05:00:00 18,4 17,2 4 2 - 1016,7 10 0,0

tt = Temperatura
td = dewpoint
ff = velocità del vento
dd = direzione del vento
ppp = reduced air pressure
vv = visibility
rr = precipitazioni

Stazioni seguenti

WeatherPro
AMSI
MeteoEarth